Regional Weather Roundup
Issued by NWS

Home | Current Version | Previous Version | Graphics & Text | Print | Product List | Glossary On
Versions: 1 2 3 4 5 6 7 8 9 10 11 12 13 14 15 16 17 18 19 20 21 22 23 24 25 26 27 28 29 30 31 32 33 34 35 36 37 38 39 40 41 42 43 44 45 46 47 48 49 50
000
ASUS43 KLSX 240610
RWRMO

WEATHER SUMMARY FOR MISSOURI
NATIONAL WEATHER SERVICE SPRINGFIELD MO
100 AM CDT SAT JUN 24 2017

NOTE: "FAIR" INDICATES FEW OR NO CLOUDS BELOW 12,000 FEET WITH NO
       SIGNIFICANT WEATHER AND/OR OBSTRUCTIONS TO VISIBILITY.
       CURRENT SKY AND/OR WEATHER CONDITIONS ARE NOT AVAILABLE FOR
       CHILLICOTHE AND FARMINGTON.

MOZ001>031-035>038-043-044-053-054-240700-
...NORTHERN AND WESTERN MISSOURI...

CITY           SKY/WX    TMP DP  RH WIND       PRES   REMARKS
KANSAS CTY INT CLEAR     62  55  77 W6        30.11R
6HR MIN TEMP:  62; 6HR MAX TEMP:  75;

KANSAS C DTWN  CLEAR     67  54  63 NW7       30.09R
6HR MIN TEMP:  67; 6HR MAX TEMP:  78;

LEE`S SUMMIT   CLEAR     65  54  67 N7        30.10R
6HR MIN TEMP:  65; 6HR MAX TEMP:  78;

ST JOSEPH      CLEAR     59  55  87 CALM      30.11R
6HR MIN TEMP:  58; 6HR MAX TEMP:  76;

CHILLICOTHE      N/A     64  55  72 VRB3      30.08R
6HR MIN TEMP:  63; 6HR MAX TEMP:  76;

KIRKSVILLE     CLEAR     59  54  83 W6        30.06R
6HR MIN TEMP:  59; 6HR MAX TEMP:  75;


$$
MOZ066>068-077>081-088>096-101>105-240700-
...SOUTHWEST MISSOURI...

CITY           SKY/WX    TMP DP  RH WIND       PRES   REMARKS
SPRINGFIELD    CLEAR     63  56  78 N7        30.08R
6HR MIN TEMP:  63; 6HR MAX TEMP:  80;

JOPLIN         CLOUDY    69  57  65 N6        30.10R
6HR MIN TEMP:  67; 6HR MAX TEMP:  83;

BRANSON        CLEAR     64  64 100 CALM      30.08R

$$
MOZ032>034-039>042-045>050-055>058-069>072-240700-
...CENTRAL MISSOURI...

CITY           SKY/WX    TMP DP  RH WIND       PRES   REMARKS
COLUMBIA       CLEAR     66  56  70 NW12      30.03S
6HR MIN TEMP:  66; 6HR MAX TEMP:  81;

JEFFERSON CITY CLEAR     67  55  65 NW6       30.03R
6HR MIN TEMP:  67; 6HR MAX TEMP:  83;

ROLLA          CLEAR     63  54  72 NW6       30.04R
6HR MIN TEMP:  63; 6HR MAX TEMP:  79;

SEDALIA        CLEAR     64  58  80 NW7       30.07S
6HR MIN TEMP:  64; 6HR MAX TEMP:  80;

WHITEMAN AFB   CLEAR     63  59  85 NW6       30.06S
WARRENSBURG    CLEAR     61  54  77 NW5       30.08R
OSAGE BEACH    CLEAR     66  54  65 NW7       30.06R

$$
MOZ051-052-059>065-240700-
...EAST CENTRAL MISSOURI...

CITY           SKY/WX    TMP DP  RH WIND       PRES   REMARKS
ST LOUIS INTL  PTCLDY    71  55  56 N8        29.99R
6HR MIN TEMP:  70; 6HR MAX TEMP:  81;

SPIRIT OF STL  CLEAR     69  56  62 NW7       29.98R
6HR MIN TEMP:  68; 6HR MAX TEMP:  80;

ST CHARLES     CLEAR     69  56  62 NW8       29.97R
6HR MIN TEMP:  69; 6HR MAX TEMP:  82;


$$
MOZ072>076-082>087-097>100-106>115-240700-
...SOUTH CENTRAL AND SOUTHEAST MISSOURI...

CITY           SKY/WX    TMP DP  RH WIND       PRES   REMARKS
CAPE GIRARDEAU MOCLDY    70  60  70 CALM      29.94R
6HR MIN TEMP:  69; 6HR MAX TEMP:  80;

FARMINGTON     CLOUDY    69  57  65 NW5       30.01R
6HR MIN TEMP:  65; 6HR MAX TEMP:  75;

POPLAR BLUFF   PTCLDY    68  63  84 NW5       29.96R
6HR MIN TEMP:  68; 6HR MAX TEMP:  76;

WEST PLAINS    CLOUDY    65  59  81 N5        30.05R
6HR MIN TEMP:  62; 6HR MAX TEMP:  72;


$$




USA.gov is the U.S. government's official web portal to all federal, state and local government web resources and services.